Antigo, WI

5:45 PM CST on February 13, 2016 (GMT -0600)
Langlade County

Weather History for KAIG - April, 2014

Change the Weather History Date:

Tuesday, April 15, 2014

  Actual Average Record
Temperature  
Mean Temperature 16 °F -  
Max Temperature 28 °F 53 °F 82 °F (2002)
Min Temperature 3 °F 31 °F 3 °F (2014)
Degree Days  
Heating Degree Days 50    
Moisture  
Dew Point 9 °F    
Average Humidity 71    
Maximum Humidity 93    
Minimum Humidity 44    
Precipitation  
Precipitation 0.00 in - - ()
Sea Level Pressure  
Sea Level Pressure 30.03 in    
Wind  
Wind Speed 3 mph (WSW)    
Max Wind Speed 15 mph    
Max Gust Speed 22 mph    
Visibility 10 miles    
Events      
Averages and records for this station are not official NWS values.
T = Trace of Precipitation, MM = Missing Value Source: NWS Daily Summary

Daily Weather History Graph

Daily Weather History Graph

Search for Another Location

Airport or City:

Trip Planner

Search our weather history database for the weather conditions in past years. The results will help you decide how hot, cold, wet, or windy it might be!

Date:

Astronomy

Apr. 15, 2014 Rise Set
Actual Time 6:11 AM CDT 7:42 PM CDT
Civil Twilight 5:40 AM CDT 8:13 PM CDT
Nautical Twilight 5:03 AM CDT 8:50 PM CDT
Astronomical Twilight 4:23 AM CDT 9:30 PM CDT
Moon 8:25 PM CDT (4/15) 6:18 AM CDT (4/15)
Length of Visible Light 14h 32m
Length of Day
13h 30m
Full, 100% of the Moon is Illuminated
Apr 15
Full
Apr 22
Last Quarter
Apr 29
New
May 6
First Quarter
May 14
Full

Hourly Weather History & Observations

Time (CDT) Temp. Windchill Dew Point Humidity Pressure Visibility Wind Dir Wind Speed Gust Speed Precip Events Conditions
12:15 AM 11.8 °F - 9.5 °F 90% 29.98 in 10.0 mi Calm Calm - N/A   Clear
12:35 AM 11.3 °F - 9.5 °F 92% 29.98 in 10.0 mi Calm Calm - N/A   Clear
12:55 AM 10.0 °F - 8.4 °F 93% 29.98 in 10.0 mi Calm Calm - N/A   Clear
1:15 AM 9.5 °F - 7.9 °F 93% 29.98 in 10.0 mi Calm Calm - N/A   Clear
1:35 AM 7.7 °F - 5.7 °F 92% 29.98 in 10.0 mi Calm Calm - N/A   Clear
1:55 AM 7.7 °F - 5.9 °F 92% 29.98 in 1.8 mi Calm Calm - N/A   Mist
2:15 AM 5.5 °F - 3.0 °F 89% 29.98 in 10.0 mi Calm Calm - N/A   Clear
2:35 AM 7.5 °F - 5.2 °F 90% 29.98 in 10.0 mi Calm Calm - N/A   Clear
2:55 AM 5.4 °F - 2.7 °F 89% 29.98 in 10.0 mi Calm Calm - N/A   Clear
3:15 AM 6.6 °F - 4.1 °F 89% 29.98 in 10.0 mi Calm Calm - N/A   Clear
3:35 AM 7.9 °F - 5.9 °F 92% 29.98 in 10.0 mi Calm Calm - N/A   Clear
3:55 AM 7.5 °F - 5.0 °F 89% 29.99 in 10.0 mi Calm Calm - N/A   Clear
4:15 AM 4.5 °F - 1.8 °F 89% 29.99 in 10.0 mi Calm Calm - N/A   Clear
4:35 AM 5.2 °F - 2.8 °F 90% 29.99 in 10.0 mi Calm Calm - N/A   Clear
5:15 AM 6.4 °F - 4.3 °F 91% 29.99 in 10.0 mi Calm Calm - N/A   Clear
5:35 AM 3.9 °F - 1.2 °F 89% 29.99 in 10.0 mi Calm Calm - N/A   Clear
5:55 AM 3.0 °F - 0.1 °F 88% 30.00 in 10.0 mi Calm Calm - N/A   Clear
6:15 AM 3.9 °F - 1.2 °F 89% 30.01 in 10.0 mi Calm Calm - N/A   Clear
6:35 AM 3.2 °F - 0.1 °F 87% 30.01 in 10.0 mi Calm Calm - N/A   Scattered Clouds
6:55 AM 5.0 °F - 2.3 °F 89% 30.01 in 10.0 mi Calm Calm - N/A   Scattered Clouds
7:15 AM 5.5 °F - 3.0 °F 89% 30.02 in 10.0 mi Calm Calm - N/A   Scattered Clouds
7:35 AM 7.7 °F - 5.5 °F 91% 30.02 in 10.0 mi Calm Calm - N/A   Mostly Cloudy
7:55 AM 9.9 °F - 7.7 °F 91% 30.02 in 10.0 mi Calm Calm - N/A   Overcast
8:15 AM 11.3 °F - 9.1 °F 91% 30.02 in 10.0 mi Calm Calm - N/A   Scattered Clouds
8:35 AM 12.4 °F - 10.4 °F 92% 30.03 in 10.0 mi Calm Calm - N/A   Clear
8:55 AM 16.5 °F 9.4 °F 14.9 °F 93% 30.03 in 10.0 mi WNW 4.6 mph - N/A   Clear
9:15 AM 18.9 °F 13.7 °F 14.2 °F 82% 30.03 in 10.0 mi NW 3.5 mph - N/A   Clear
9:35 AM 19.6 °F 10.6 °F 12.9 °F 75% 30.03 in 10.0 mi NW 6.9 mph - N/A   Clear
9:55 AM 21.4 °F 15.1 °F 13.5 °F 72% 30.03 in 10.0 mi WNW 4.6 mph - N/A   Clear
10:15 AM 23.4 °F 14.3 °F 14.0 °F 67% 30.03 in 10.0 mi West 8.1 mph - N/A   Scattered Clouds
10:35 AM 23.2 °F 12.6 °F 11.1 °F 60% 30.03 in 10.0 mi WNW 10.4 mph - N/A   Mostly Cloudy
10:55 AM 24.8 °F 15.3 °F 11.5 °F 57% 30.04 in 10.0 mi WNW 9.2 mph - N/A   Mostly Cloudy
11:15 AM 23.7 °F 11.0 °F 10.9 °F 58% 30.04 in 7.0 mi WNW 15.0 mph 20.7 mph N/A   Overcast
11:55 AM 24.3 °F 13.9 °F 9.1 °F 53% 30.03 in 10.0 mi WNW 10.4 mph 18.4 mph N/A   Mostly Cloudy
12:35 PM 24.4 °F 14.2 °F 10.0 °F 54% 30.04 in 10.0 mi WNW 10.4 mph 21.9 mph N/A   Mostly Cloudy
12:55 PM 25.9 °F 14.8 °F 10.2 °F 52% 30.03 in 10.0 mi WNW 12.7 mph - N/A   Mostly Cloudy
1:15 PM 25.3 °F 14.7 °F 9.3 °F 51% 30.03 in 10.0 mi NW 11.5 mph 18.4 mph N/A   Overcast
1:35 PM 26.6 °F 15.7 °F 12.4 °F 55% 30.03 in 10.0 mi West 12.7 mph - N/A   Overcast
1:55 PM 26.6 °F 18.2 °F 12.0 °F 54% 30.04 in 10.0 mi WNW 8.1 mph - N/A   Overcast
2:15 PM 26.8 °F 17.1 °F 10.6 °F 51% 30.03 in 10.0 mi NW 10.4 mph 19.6 mph N/A   Mostly Cloudy
2:35 PM 26.6 °F 17.5 °F 9.9 °F 49% 30.03 in 10.0 mi West 9.2 mph - N/A   Mostly Cloudy
2:55 PM 26.6 °F 16.2 °F 10.2 °F 50% 30.03 in 10.0 mi West 11.5 mph - N/A   Mostly Cloudy
3:15 PM 27.1 °F 17.5 °F 10.6 °F 50% 30.02 in 10.0 mi West 10.4 mph - N/A   Mostly Cloudy
3:35 PM 28.8 °F 17.9 °F 11.8 °F 49% 30.02 in 10.0 mi WSW 13.8 mph - N/A   Overcast
3:55 PM 27.9 °F 18.4 °F 11.7 °F 51% 30.02 in 10.0 mi West 10.4 mph 17.3 mph N/A   Overcast
4:15 PM 28.2 °F 18.9 °F 10.9 °F 48% 30.03 in 10.0 mi West 10.4 mph - N/A   Mostly Cloudy
4:35 PM 27.0 °F 18.7 °F 10.0 °F 49% 30.03 in 10.0 mi WNW 8.1 mph - N/A   Mostly Cloudy
4:55 PM 28.0 °F 18.1 °F 9.7 °F 46% 30.03 in 10.0 mi WNW 11.5 mph 19.6 mph N/A   Mostly Cloudy
5:15 PM 26.6 °F 21.2 °F 8.6 °F 47% 30.03 in 10.0 mi West 4.6 mph - N/A   Scattered Clouds
5:35 PM 28.4 °F 19.1 °F 9.1 °F 44% 30.03 in 10.0 mi WSW 10.4 mph 16.1 mph N/A   Scattered Clouds
5:55 PM 27.5 °F 22.2 °F 9.1 °F 46% 30.04 in 10.0 mi WNW 4.6 mph - N/A   Mostly Cloudy
6:15 PM 25.7 °F 16.4 °F 10.2 °F 52% 30.04 in 10.0 mi WSW 9.2 mph - N/A   Mostly Cloudy
6:35 PM 24.8 °F 16.1 °F 10.8 °F 55% 30.04 in 10.0 mi SSW 8.1 mph - N/A   Mostly Cloudy
6:55 PM 24.4 °F 15.6 °F 10.4 °F 55% 30.05 in 10.0 mi WSW 8.1 mph - N/A   Scattered Clouds
7:15 PM 23.7 °F 14.7 °F 11.1 °F 59% 30.05 in 10.0 mi SW 8.1 mph - N/A   Scattered Clouds
7:55 PM 20.8 °F 12.1 °F 10.6 °F 65% 30.06 in 10.0 mi SW 6.9 mph - N/A   Clear
8:15 PM 21.0 °F 12.4 °F 10.4 °F 64% 30.07 in 10.0 mi SSW 6.9 mph - N/A   Clear
8:35 PM 19.4 °F 11.5 °F 9.5 °F 65% 30.08 in 10.0 mi SW 5.8 mph - N/A   Clear
8:55 PM 19.4 °F 11.5 °F 9.5 °F 65% 30.10 in 10.0 mi SW 5.8 mph - N/A   Clear
9:15 PM 20.8 °F 14.4 °F 10.2 °F 64% 30.10 in 10.0 mi SSW 4.6 mph - N/A   Clear
9:35 PM 19.0 °F 13.9 °F 10.4 °F 69% 30.10 in 10.0 mi SSW 3.5 mph - N/A   Clear
9:55 PM 18.5 °F 13.3 °F 10.4 °F 71% 30.11 in 10.0 mi SSW 3.5 mph - N/A   Clear
10:15 PM 20.1 °F 15.2 °F 9.9 °F 64% 30.11 in 10.0 mi SSW 3.5 mph - N/A   Clear
10:35 PM 15.8 °F 10.2 °F 9.5 °F 76% 30.11 in 10.0 mi SSW 3.5 mph - N/A   Clear
10:55 PM 15.6 °F 10.0 °F 9.5 °F 77% 30.11 in 10.0 mi SSW 3.5 mph - N/A   Clear
11:15 PM 14.9 °F 9.2 °F 9.5 °F 79% 30.12 in 10.0 mi SSW 3.5 mph - N/A   Clear
11:35 PM 15.8 °F 6.1 °F 9.3 °F 76% 30.13 in 10.0 mi SSW 6.9 mph - N/A   Clear
11:55 PM 13.6 °F 6.0 °F 7.3 °F 76% 30.13 in 10.0 mi SSW 4.6 mph - N/A   Clear